Location: Cartignies
(50.0929°N, 3.8447°E)
Time: 14:00:25
(UTC+00:00)

DNEPR-1 R/B - Pass Details

Date: 12 January 2026
Orbit: 586 x 1328 km, 64.6° (Epoch: 16 February)

Event Time Altitude Azimuth Distance (km) Brightness Sun altitude
Rises 18:05:36 0° 192° (SSW) 2,990 7.4 -18.3°
Reaches altitude 10° 18:08:10 10° 182° (S) 2,009 6.3 -18.7°
Enters shadow 18:11:41 30° 131° (SE) 1,077 4.4 -19.3°
